Hourly Data Report for April 12, 2021

TORONTO CITY
ONTARIO
Current Station Operator: ECCC - MSC

43°40'00.000" N
79°24'00.000" W
112.50 m
6158355
71508
XTO

Download Data

Hourly Data (April 2021)
Hourly Data Report for April 12, 2021
TIME
LST
Temp Definition
°C
Dew Point Definition
°C
Rel Hum Definition
%
Precip. Amount Definition
mm

Wind Dir Definition
10's deg

Wind Spd Definition
km/h
Visibility Definition
km
Stn Press Definition
kPa
Hmdx Definition


Wind Chill Definition


Weather Definition


00:00 11.4 9.7 89 0.0       98.79     LegendNANA
01:00 10.7 9.6 93 0.0       98.75     LegendNANA
02:00 10.6 9.4 93 0.0       98.73     LegendNANA
03:00 9.9 9.0 94 0.0       98.73     LegendNANA
04:00 8.7 8.0 95 0.0       98.72     LegendNANA
05:00 7.8 7.2 96 0.2       98.78     LegendNANA
06:00 7.7 7.0 96 0.1       98.82     LegendNANA
07:00 7.1 6.2 94 1.6       98.88     LegendNANA
08:00 6.8 6.0 95 0.5       98.95     LegendNANA
09:00 6.9 6.2 95 1.9       99.04     LegendNANA
10:00 7.2 6.4 94 1.3       99.10     LegendNANA
11:00 6.7 5.9 94 0.4       99.18     LegendNANA
12:00 7.3 6.4 94 0.5       99.27     LegendNANA
13:00 7.5 6.6 94 0.5       99.36     LegendNANA
14:00 7.5 6.5 93 0.0       99.42     LegendNANA
15:00 7.9 6.4 91 0.0       99.48     LegendNANA
16:00 8.3 6.7 90 0.0       99.52     LegendNANA
17:00 8.0 6.2 88 0.0       99.63     LegendNANA
18:00 8.0 6.3 89 0.0       99.70     LegendNANA
19:00 7.9 6.2 89 0.0       99.85     LegendNANA
20:00 8.3 6.5 89 0.0       99.94     LegendNANA
21:00 8.3 6.3 87 0.0       99.99     LegendNANA
22:00 8.5 6.6 88 0.0       99.98     LegendNANA
23:00 8.2 6.6 90 0.0       100.04     LegendNANA

Notes on Data Quality.

Legend

  • E = Estimated
  • M = Missing
  • NA = Not Available*
  • [empty] = Indicates an unobserved value
Date modified: